TimeEST,TemperatureF,Dew PointF,Humidity,Sea Level PressureIn,VisibilityMPH,Wind Direction,Wind SpeedMPH,Gust SpeedMPH,PrecipitationIn,Events,Conditions,WindDirDegrees,DateUTC
12:15 AM,19.4,12.2,74,30.14,10.0,Calm,Calm,-,N/A,,Overcast,0,2014-01-06 05:15:00
12:35 AM,19.4,14.0,80,30.13,10.0,Calm,Calm,-,N/A,,Overcast,0,2014-01-06 05:35:00
12:55 AM,21.2,15.8,80,30.13,10.0,Calm,Calm,-,N/A,,Overcast,0,2014-01-06 05:55:00
1:15 AM,21.2,14.0,74,30.12,10.0,Calm,Calm,-,N/A,,Overcast,0,2014-01-06 06:15:00
1:35 AM,21.2,15.8,80,30.11,10.0,SE,4.6,-,N/A,,Overcast,130,2014-01-06 06:35:00
1:55 AM,23.0,17.6,80,30.09,10.0,SE,4.6,-,N/A,,Overcast,140,2014-01-06 06:55:00
2:15 AM,24.8,15.8,69,30.08,10.0,SE,6.9,-,N/A,,Overcast,140,2014-01-06 07:15:00
2:35 AM,24.8,15.8,69,30.06,5.0,ESE,6.9,-,N/A,,Overcast,120,2014-01-06 07:35:00
2:55 AM,24.8,17.6,74,30.04,10.0,ESE,5.8,-,N/A,,Overcast,120,2014-01-06 07:55:00
3:15 AM,24.8,17.6,74,30.01,10.0,Calm,Calm,-,N/A,,Overcast,0,2014-01-06 08:15:00
3:35 AM,26.6,19.4,74,29.98,10.0,ESE,10.4,-,N/A,,Overcast,120,2014-01-06 08:35:00
3:55 AM,26.6,21.2,80,29.96,10.0,ESE,11.5,19.6,N/A,,Overcast,120,2014-01-06 08:55:00
4:15 AM,26.6,21.2,80,29.94,10.0,ESE,13.8,20.7,N/A,,Overcast,120,2014-01-06 09:15:00
4:35 AM,28.4,21.2,74,29.92,10.0,ESE,11.5,19.6,N/A,,Overcast,120,2014-01-06 09:35:00
4:55 AM,28.4,21.2,74,29.90,10.0,East,5.8,-,N/A,,Overcast,100,2014-01-06 09:55:00
5:15 AM,28.4,21.2,74,29.87,10.0,ESE,9.2,-,N/A,,Overcast,120,2014-01-06 10:15:00
5:35 AM,28.4,21.2,74,29.85,10.0,SE,8.1,16.1,N/A,,Overcast,140,2014-01-06 10:35:00
5:55 AM,28.4,24.8,86,29.83,10.0,SSE,9.2,-,N/A,,Overcast,150,2014-01-06 10:55:00
6:15 AM,30.2,26.6,86,29.80,6.0,SE,10.4,17.3,N/A,,Overcast,130,2014-01-06 11:15:00
6:35 AM,30.2,26.6,86,29.79,10.0,SE,12.7,17.3,N/A,,Overcast,140,2014-01-06 11:35:00
6:55 AM,30.2,26.6,86,29.77,7.0,SSE,10.4,17.3,N/A,,Overcast,150,2014-01-06 11:55:00
7:15 AM,32.0,26.6,80,29.74,7.0,SE,11.5,20.7,N/A,,Overcast,140,2014-01-06 12:15:00
7:35 AM,32.0,28.4,87,29.73,10.0,SSE,13.8,25.3,N/A,,Overcast,150,2014-01-06 12:35:00
7:55 AM,33.8,28.4,81,29.71,10.0,SSE,18.4,26.5,N/A,,Overcast,150,2014-01-06 12:55:00
8:15 AM,33.8,28.4,81,29.69,10.0,SSE,15.0,25.3,N/A,,Unknown,150,2014-01-06 13:15:00
8:35 AM,33.8,28.4,81,29.66,10.0,SSE,13.8,23.0,N/A,,Overcast,150,2014-01-06 13:35:00
8:55 AM,33.8,30.2,87,29.63,8.0,SSE,12.7,25.3,N/A,,Overcast,150,2014-01-06 13:55:00
9:15 AM,33.8,30.2,87,29.62,5.0,SSE,13.8,25.3,N/A,,Overcast,160,2014-01-06 14:15:00
9:35 AM,35.6,30.2,81,29.59,9.0,SSE,18.4,28.8,N/A,,Overcast,160,2014-01-06 14:35:00
9:55 AM,35.6,30.2,81,29.58,10.0,South,16.1,28.8,N/A,,Overcast,170,2014-01-06 14:55:00
10:15 AM,35.6,32.0,87,29.55,10.0,SSE,16.1,25.3,N/A,,Overcast,160,2014-01-06 15:15:00
10:35 AM,35.6,32.0,87,29.52,10.0,SSE,13.8,20.7,N/A,,Overcast,150,2014-01-06 15:35:00
10:55 AM,35.6,32.0,87,29.48,6.0,South,19.6,25.3,N/A,,Overcast,170,2014-01-06 15:55:00
11:15 AM,35.6,32.0,87,29.44,10.0,South,18.4,23.0,0.01,,Overcast,170,2014-01-06 16:15:00
11:35 AM,35.6,33.8,93,29.41,5.0,SSE,16.1,26.5,0.01,,Overcast,160,2014-01-06 16:35:00
11:55 AM,37.4,33.8,87,29.37,9.0,SSE,18.4,25.3,0.02,,Overcast,160,2014-01-06 16:55:00
12:15 PM,37.4,33.8,87,29.34,9.0,SSE,18.4,27.6,N/A,,Overcast,150,2014-01-06 17:15:00
12:35 PM,37.4,35.6,93,29.31,8.0,SSE,20.7,27.6,N/A,,Overcast,150,2014-01-06 17:35:00
12:55 PM,39.2,35.6,87,29.28,5.0,SSE,21.9,27.6,0.01,,Overcast,150,2014-01-06 17:55:00
1:15 PM,39.2,35.6,87,29.26,7.0,SSE,16.1,28.8,0.01,,Overcast,160,2014-01-06 18:15:00
1:35 PM,39.2,35.6,87,29.26,4.0,SSE,19.6,26.5,0.04,,Overcast,160,2014-01-06 18:35:00
1:55 PM,39.2,37.4,93,29.24,6.0,South,12.7,18.4,0.04,,Overcast,180,2014-01-06 18:55:00
2:15 PM,41.0,37.4,87,29.23,7.0,SSE,16.1,21.9,0.10,,Overcast,160,2014-01-06 19:15:00
2:35 PM,41.0,37.4,87,29.21,10.0,SSE,12.7,18.4,0.12,,Overcast,160,2014-01-06 19:35:00
2:55 PM,42.8,39.2,87,29.17,9.0,SSE,17.3,24.2,0.12,,Overcast,160,2014-01-06 19:55:00
3:15 PM,42.8,39.2,87,29.16,5.0,South,15.0,25.3,N/A,,Overcast,170,2014-01-06 20:15:00
3:35 PM,44.6,41.0,87,29.16,5.0,SSE,13.8,23.0,N/A,,Overcast,160,2014-01-06 20:35:00
3:55 PM,44.6,41.0,87,29.13,10.0,SSE,15.0,23.0,N/A,,Overcast,160,2014-01-06 20:55:00
4:15 PM,44.6,41.0,87,29.12,9.0,SSE,11.5,-,N/A,,Overcast,160,2014-01-06 21:15:00
4:35 PM,44.6,41.0,87,29.12,5.0,South,12.7,20.7,N/A,,Overcast,170,2014-01-06 21:35:00
4:55 PM,44.6,41.0,87,29.12,5.0,SSE,12.7,-,N/A,,Overcast,160,2014-01-06 21:55:00
5:15 PM,44.6,42.8,93,29.10,4.0,SSE,9.2,-,0.01,,Overcast,160,2014-01-06 22:15:00
5:35 PM,44.6,42.8,93,29.12,3.0,West,12.7,-,0.07,,Overcast,280,2014-01-06 22:35:00
5:55 PM,44.6,41.0,87,29.12,7.0,West,9.2,-,0.13,,Overcast,260,2014-01-06 22:55:00
6:15 PM,44.6,41.0,87,29.14,6.0,South,5.8,-,0.01,,Overcast,190,2014-01-06 23:15:00
6:35 PM,42.8,39.2,87,29.13,10.0,West,16.1,21.9,0.04,,Overcast,280,2014-01-06 23:35:00
6:55 PM,37.4,33.8,87,29.15,10.0,West,13.8,24.2,0.05,,Overcast,260,2014-01-06 23:55:00
7:15 PM,35.6,30.2,81,29.14,10.0,West,15.0,19.6,N/A,,Overcast,260,2014-01-07 00:15:00
7:35 PM,33.8,28.4,81,29.14,10.0,West,10.4,20.7,0.01,,Overcast,260,2014-01-07 00:35:00
7:55 PM,33.8,28.4,81,29.17,10.0,WSW,12.7,19.6,0.01,,Overcast,250,2014-01-07 00:55:00
8:15 PM,33.8,28.4,81,29.17,10.0,WSW,9.2,-,N/A,,Overcast,250,2014-01-07 01:15:00
8:35 PM,33.8,28.4,81,29.15,10.0,WSW,4.6,-,N/A,,Overcast,250,2014-01-07 01:35:00
8:55 PM,33.8,26.6,75,29.16,9.0,West,12.7,-,N/A,,Overcast,280,2014-01-07 01:55:00
9:15 PM,33.8,24.8,70,29.15,10.0,WNW,12.7,20.7,N/A,,Overcast,290,2014-01-07 02:15:00
9:35 PM,32.0,23.0,69,29.15,10.0,West,15.0,20.7,N/A,,Overcast,280,2014-01-07 02:35:00
9:55 PM,32.0,21.2,64,29.16,10.0,WSW,10.4,24.2,N/A,,Overcast,240,2014-01-07 02:55:00
10:15 PM,30.2,21.2,69,29.15,10.0,West,15.0,19.6,N/A,,Overcast,260,2014-01-07 03:15:00
10:35 PM,28.4,17.6,64,29.15,10.0,West,18.4,28.8,N/A,,Overcast,260,2014-01-07 03:35:00
10:55 PM,28.4,17.6,64,29.16,10.0,West,18.4,24.2,N/A,,Overcast,260,2014-01-07 03:55:00
11:15 PM,26.6,15.8,64,29.16,10.0,West,19.6,29.9,N/A,,Overcast,270,2014-01-07 04:15:00
11:35 PM,26.6,12.2,55,29.16,10.0,West,21.9,27.6,N/A,,Overcast,280,2014-01-07 04:35:00
11:55 PM,24.8,14.0,64,29.17,10.0,West,16.1,25.3,N/A,,Overcast,280,2014-01-07 04:55:00